Other Surface Observations
Issued by NWS

Home | Current Version | Previous Version | Text Only | Print | Product List | Glossary On
Versions: 1 2 3 4 5 6 7 8 9 10 11 12 13 14 15 16 17 18 19 20 21 22 23 24 25 26 27 28 29 30 31 32 33 34 35 36 37 38 39 40 41 42 43 44 45 46 47 48 49 50
000
SXUS52 KTAE 282219
OSOTAE
OSOTAE
North Florida/South Alabama/Southwest Georgia Weather Roundup
National Weather Service Tallahassee Florida
600 PM EDT THU MAY 28 2015

Note: "fair" indicates few or no clouds below 12,000 feet with no
significant weather and/or obstructions to visibility.

!FLZ017-115-028-034-025-282300
...North Florida...

CITY           SKY/WX    TMP DP  RH WIND       PRES   REMARKS
TALLAHASSEE    PTSUNNY   89  62  40 E10       30.08F
APALACHICOLA   CLOUDY    84  69  60 S9        30.10S
PERRY          MOSUNNY   87  61  41 SE6       30.09S
CROSS CITY       N/A     89  57  33 VRB3      30.07F
JACKSONVILLE   PTSUNNY   82  60  47 E13       30.12F
$$

!FLZ112-006-005-002-011-282300
...Florida Panhandle...

CITY           SKY/WX    TMP DP  RH WIND       PRES   REMARKS
MARIANNA       NOT AVBL
BONIFAY        LGT RAIN  71  70  96 CALM      30.12F
PANAMA CITY NW FAIR      75  71  87 E3        30.10F
TYNDALL AFB    PTSUNNY   73  71  93 E2        30.10F
TYND DRONE APT FAIR      74  72  95 E5        30.09F
DE FUNIAK SPR  LGT RAIN  71  70  96 MISG      30.13S
EGLIN AFB      TSTM      77  70  79 SE7       30.11S
DESTIN         LGT RAIN  77  71  82 SE7       30.11S
HURLBURT       MOSUNNY   79  70  73 E12       30.08F
CRESTVIEW      LGT RAIN  71  70  96 CALM      30.13S
PENSACOLA      PTSUNNY   81  72  74 S10       30.09S
$$

!ALZ063-066-282300
...South Alabama...

CITY           SKY/WX    TMP DP  RH WIND       PRES   REMARKS
DOTHAN         CLOUDY    74  69  85 S15G21    30.15R
OZARK CAIRNS   TSTM      70  68  94 SW7       30.11F
FT RUCKER HELI CLOUDY    73  68  84 VRB5      30.11S THUNDER
RUCKER HELI 3  LGT RAIN  70  70 100 S7        30.14S
RUCKER HELI 2  TSTM      71  71 100 VRB5      30.11S
FLORALA APT    TSTM      71  69  93 CALM      30.14F FOG
ANDALUSIA      TSTM      73  70  88 CALM      30.13S
TROY           HVY RAIN  71  69  93 S13       30.15R FOG
EUFALA         FAIR      84  69  60 S3        30.08F
MOBILE         PTSUNNY   78  73  84 NW8       30.10R THUNDER
$$

!GAZ120>161-282300
...Southwest and South Central Georgia...

CITY           SKY/WX    TMP DP  RH WIND       PRES   REMARKS
THOMASVILLE    FAIR      88  63  42 E6        30.11F
BAINBRIDGE     MOSUNNY   88  64  45 SE6       30.10S
MOODY AFB      SUNNY     88  61  39 E8        30.09S
VALDOSTA       SUNNY     88  60  38 SE6       30.09F
MOULTRIE       SUNNY     88  59  37 CALM      30.11S
BLAKELY        MOSUNNY   86  64  48 S6        30.10S
ALBANY         MOSUNNY   88  59  37 E10       30.12F
TIFTON         FAIR      87  57  36 E9        30.11S
FITZGERALD     FAIR      87  58  36 E9        30.15R
CORDELE        FAIR      89  63  41 SE9       30.13S HX  90
AMERICUS       FAIR      86  61  42 SE9       30.13F
HOMERVILLE     PTSUNNY   88  61  40 SE9       30.12R
$$

!GMZ750-755-770-775-282300
...Coastal and Buoy Obs...

STATION/POSITION TIME  TEMP    WIND        PRES    VSBY  WAVE
                       AIR SEA DIR/SP/G                  HT/PER
                 (UTC) (F)     (DEG/KT/KT) (MB)    (MI)  (FT/S)
KEATON BEACH     2200   80     270/  7/  8 1019.0F
CEDAR KEY        2200   83     320/  5/  7 1018.5F
C TOWER          2200   78     150/  9/  9 1019.1F
APALACHICOLA BUO 2150   80 81  100/  4/  6 1019.0F         3/ 6
PANAMA CITY BUOY 2150   80 81  140/ 10/ 12 1019.0F         3/ 5
MOBILE BUOY      2150   78 80   90/  4/  6 1019.0F         2/ 6
ORANGE BCH AL BU 2150   78 80  280/  2/  4 1018.2F         2/ 8
$$



USA.gov is the U.S. government's official web portal to all federal, state and local government web resources and services.